Location: ??????
(55.2000°N, 38.3000°E)
Time: 08:23:20
(UTC+00:00)

Meteor 2-1 Rocket - Pass Details

Date: 15 November 2025
Orbit: 822 x 912 km, 81.3° (Epoch: 14 December)

Event Time Altitude Azimuth Distance (km) Brightness Sun altitude
Rises 03:04:50 0° 345° (NNW) 3,555 7.2 -16.0°
Reaches altitude 10° 03:07:20 10° 347° (NNW) 2,604 6.5 -15.7°
Maximum altitude 03:13:18 84° 76° (ENE) 911 4.4 -14.9°
Drops below altitude 10° 03:19:07 10° 165° (SSE) 2,540 7.1 -14.0°
Sets 03:21:32 0° 166° (SSE) 3,462 7.8 -13.7°
